Time,TemperatureF,DewpointF,PressureIn,WindDirection,WindDirectionDegrees,WindSpeedMPH,WindSpeedGustMPH,Humidity,HourlyPrecipIn,Conditions,Clouds,dailyrainin,SolarRadiationWatts/m^2,SoftwareType,DateUTC
2013-03-15 00:02:00,51.0,20.0,-100.00,WSW,258,6.0,12.0,29,0.00,,,0.00,0.000000,,2013-03-15 06:02:00,
2013-03-15 00:12:00,51.0,20.0,-100.00,WSW,258,6.0,12.0,29,0.00,,,0.00,0.000000,,2013-03-15 06:12:00,
2013-03-15 00:21:00,51.0,20.0,-100.00,WSW,258,6.0,12.0,29,0.00,,,0.00,0.000000,,2013-03-15 06:21:00,
2013-03-15 00:42:00,50.0,19.0,-100.00,SW,227,3.0,10.0,29,0.00,,,0.00,0.000000,,2013-03-15 06:42:00,
2013-03-15 00:53:00,50.0,19.0,-100.00,SW,227,3.0,10.0,29,0.00,,,0.00,0.000000,,2013-03-15 06:53:00,
2013-03-15 01:02:00,50.0,19.0,-100.00,SW,227,3.0,10.0,29,0.00,,,0.00,0.000000,,2013-03-15 07:02:00,
2013-03-15 01:12:00,50.0,19.0,-100.00,SW,227,3.0,10.0,29,0.00,,,0.00,0.000000,,2013-03-15 07:12:00,
2013-03-15 01:21:00,50.0,19.0,-100.00,SW,227,3.0,10.0,29,0.00,,,0.00,0.000000,,2013-03-15 07:21:00,
2013-03-15 01:22:00,55.0,21.0,-100.00,SW,236,8.0,20.0,26,0.00,,,0.00,0.000000,,2013-03-15 07:22:00,
2013-03-15 01:42:00,55.0,21.0,-100.00,SW,236,8.0,20.0,26,0.00,,,0.00,0.000000,,2013-03-15 07:42:00,
2013-03-15 01:52:00,55.0,21.0,-100.00,SW,236,8.0,20.0,26,0.00,,,0.00,0.000000,,2013-03-15 07:52:00,
2013-03-15 02:02:00,55.0,21.0,-100.00,SW,236,8.0,20.0,26,0.00,,,0.00,0.000000,,2013-03-15 08:02:00,
2013-03-15 02:12:00,55.0,21.0,-100.00,SW,236,8.0,20.0,26,0.00,,,0.00,0.000000,,2013-03-15 08:12:00,
2013-03-15 02:42:00,58.0,22.0,-100.00,WSW,257,13.0,23.0,25,0.00,,,0.00,0.000000,,2013-03-15 08:42:00,
2013-03-15 02:52:00,58.0,22.0,-100.00,WSW,257,13.0,23.0,25,0.00,,,0.00,0.000000,,2013-03-15 08:52:00,
2013-03-15 03:02:00,58.0,22.0,-100.00,WSW,257,13.0,23.0,25,0.00,,,0.00,0.000000,,2013-03-15 09:02:00,
2013-03-15 03:22:00,56.0,23.0,-100.00,WNW,289,9.0,15.0,27,0.00,,,0.00,0.000000,,2013-03-15 09:22:00,
2013-03-15 03:43:00,56.0,23.0,-100.00,WNW,289,9.0,15.0,27,0.00,,,0.00,0.000000,,2013-03-15 09:43:00,
2013-03-15 03:53:00,56.0,23.0,-100.00,WNW,289,9.0,15.0,27,0.00,,,0.00,0.000000,,2013-03-15 09:53:00,
2013-03-15 04:02:00,56.0,23.0,-100.00,WNW,289,9.0,15.0,27,0.00,,,0.00,0.000000,,2013-03-15 10:02:00,
2013-03-15 04:12:00,56.0,23.0,-100.00,WNW,289,9.0,15.0,27,0.00,,,0.00,0.000000,,2013-03-15 10:12:00,
2013-03-15 04:22:00,55.0,21.0,-100.00,West,271,15.0,24.0,26,0.00,,,0.00,0.000000,,2013-03-15 10:22:00,
2013-03-15 04:43:00,55.0,21.0,-100.00,West,271,15.0,24.0,26,0.00,,,0.00,0.000000,,2013-03-15 10:43:00,
2013-03-15 04:52:00,55.0,21.0,-100.00,West,271,15.0,24.0,26,0.00,,,0.00,0.000000,,2013-03-15 10:52:00,
2013-03-15 05:02:00,55.0,21.0,-100.00,West,271,15.0,24.0,26,0.00,,,0.00,0.000000,,2013-03-15 11:02:00,
2013-03-15 05:12:00,55.0,21.0,-100.00,West,271,15.0,24.0,26,0.00,,,0.00,0.000000,,2013-03-15 11:12:00,
2013-03-15 05:42:00,53.0,21.0,-100.00,West,280,12.0,22.0,28,0.00,,,0.00,0.000000,,2013-03-15 11:42:00,
2013-03-15 05:52:00,53.0,21.0,-100.00,West,280,12.0,22.0,28,0.00,,,0.00,0.000000,,2013-03-15 11:52:00,
2013-03-15 06:02:00,53.0,21.0,-100.00,West,280,12.0,22.0,28,0.00,,,0.00,0.000000,,2013-03-15 12:02:00,
2013-03-15 06:12:00,53.0,21.0,-100.00,West,280,12.0,22.0,28,0.00,,,0.00,0.000000,,2013-03-15 12:12:00,
2013-03-15 06:21:00,53.0,21.0,-100.00,West,280,12.0,22.0,28,0.00,,,0.00,0.000000,,2013-03-15 12:21:00,
2013-03-15 06:42:00,55.0,23.0,-100.00,West,273,17.0,26.0,28,0.00,,,0.00,0.000000,,2013-03-15 12:42:00,
2013-03-15 06:52:00,55.0,23.0,-100.00,West,273,17.0,26.0,28,0.00,,,0.00,0.000000,,2013-03-15 12:52:00,
2013-03-15 07:02:00,55.0,23.0,-100.00,West,273,17.0,26.0,28,0.00,,,0.00,0.000000,,2013-03-15 13:02:00,
2013-03-15 07:12:00,55.0,23.0,-100.00,West,273,17.0,26.0,28,0.00,,,0.00,0.000000,,2013-03-15 13:12:00,
2013-03-15 07:21:00,55.0,23.0,-100.00,West,273,17.0,26.0,28,0.00,,,0.00,0.000000,,2013-03-15 13:21:00,
2013-03-15 07:42:00,53.0,22.0,-100.00,WNW,284,16.0,25.0,29,0.00,,,0.00,0.000000,,2013-03-15 13:42:00,
2013-03-15 07:52:00,53.0,22.0,-100.00,WNW,284,16.0,25.0,29,0.00,,,0.00,0.000000,,2013-03-15 13:52:00,
2013-03-15 08:02:00,53.0,22.0,-100.00,WNW,284,16.0,25.0,29,0.00,,,0.00,0.000000,,2013-03-15 14:02:00,
2013-03-15 08:11:00,53.0,22.0,-100.00,WNW,284,16.0,25.0,29,0.00,,,0.00,0.000000,,2013-03-15 14:11:00,
2013-03-15 08:21:00,53.0,22.0,-100.00,WNW,284,16.0,25.0,29,0.00,,,0.00,0.000000,,2013-03-15 14:21:00,
2013-03-15 08:42:00,54.0,22.0,-100.00,WNW,291,11.0,19.0,29,0.00,,,0.00,31.000000,,2013-03-15 14:42:00,
2013-03-15 08:53:00,54.0,22.0,-100.00,WNW,291,11.0,19.0,29,0.00,,,0.00,31.000000,,2013-03-15 14:53:00,
2013-03-15 09:02:00,54.0,22.0,-100.00,WNW,291,11.0,19.0,29,0.00,,,0.00,31.000000,,2013-03-15 15:02:00,
2013-03-15 09:12:00,54.0,22.0,-100.00,WNW,291,11.0,19.0,29,0.00,,,0.00,31.000000,,2013-03-15 15:12:00,
2013-03-15 09:21:00,54.0,22.0,-100.00,WNW,291,11.0,19.0,29,0.00,,,0.00,31.000000,,2013-03-15 15:21:00,
2013-03-15 09:22:00,56.0,23.0,-100.00,West,280,15.0,23.0,28,0.00,,,0.00,128.000000,,2013-03-15 15:22:00,
2013-03-15 09:53:00,56.0,23.0,-100.00,West,280,15.0,23.0,28,0.00,,,0.00,128.000000,,2013-03-15 15:53:00,
2013-03-15 10:02:00,56.0,23.0,-100.00,West,280,15.0,23.0,28,0.00,,,0.00,128.000000,,2013-03-15 16:02:00,
2013-03-15 10:12:00,56.0,23.0,-100.00,West,280,15.0,23.0,28,0.00,,,0.00,128.000000,,2013-03-15 16:12:00,
2013-03-15 10:42:00,59.0,22.0,-100.00,West,278,17.0,29.0,24,0.00,,,0.00,229.000000,,2013-03-15 16:42:00,
2013-03-15 10:52:00,59.0,22.0,-100.00,West,278,17.0,29.0,24,0.00,,,0.00,229.000000,,2013-03-15 16:52:00,
2013-03-15 11:02:00,59.0,22.0,-100.00,West,278,17.0,29.0,24,0.00,,,0.00,229.000000,,2013-03-15 17:02:00,
2013-03-15 11:12:00,59.0,22.0,-100.00,West,278,17.0,29.0,24,0.00,,,0.00,229.000000,,2013-03-15 17:12:00,
2013-03-15 11:21:00,59.0,22.0,-100.00,West,278,17.0,29.0,24,0.00,,,0.00,229.000000,,2013-03-15 17:21:00,
2013-03-15 11:43:00,61.0,20.0,-100.00,West,265,18.0,29.0,20,0.00,,,0.00,360.000000,,2013-03-15 17:43:00,
2013-03-15 11:53:00,61.0,20.0,-100.00,West,265,18.0,29.0,20,0.00,,,0.00,360.000000,,2013-03-15 17:53:00,
2013-03-15 12:02:00,61.0,20.0,-100.00,West,265,18.0,29.0,20,0.00,,,0.00,360.000000,,2013-03-15 18:02:00,
2013-03-15 12:12:00,61.0,20.0,-100.00,West,265,18.0,29.0,20,0.00,,,0.00,360.000000,,2013-03-15 18:12:00,
2013-03-15 12:21:00,61.0,20.0,-100.00,West,265,18.0,29.0,20,0.00,,,0.00,360.000000,,2013-03-15 18:21:00,
2013-03-15 12:22:00,63.0,22.0,-100.00,NW,311,18.0,31.0,21,0.00,,,0.00,863.000000,,2013-03-15 18:22:00,
2013-03-15 12:42:00,63.0,22.0,-100.00,NW,311,18.0,31.0,21,0.00,,,0.00,863.000000,,2013-03-15 18:42:00,
2013-03-15 12:52:00,63.0,22.0,-100.00,NW,311,18.0,31.0,21,0.00,,,0.00,863.000000,,2013-03-15 18:52:00,
2013-03-15 13:02:00,63.0,22.0,-100.00,NW,311,18.0,31.0,21,0.00,,,0.00,863.000000,,2013-03-15 19:02:00,
2013-03-15 13:12:00,63.0,22.0,-100.00,NW,311,18.0,31.0,21,0.00,,,0.00,863.000000,,2013-03-15 19:12:00,
2013-03-15 13:42:00,63.0,21.0,-100.00,NW,320,23.0,36.0,20,0.00,,,-99.99,980.000000,,2013-03-15 19:42:00,
2013-03-15 13:52:00,63.0,21.0,-100.00,NW,320,23.0,36.0,20,0.00,,,-99.99,980.000000,,2013-03-15 19:52:00,
2013-03-15 14:02:00,63.0,21.0,-100.00,NW,320,23.0,36.0,20,0.00,,,-99.99,980.000000,,2013-03-15 20:02:00,
2013-03-15 14:12:00,63.0,21.0,-100.00,NW,320,23.0,36.0,20,0.00,,,-99.99,980.000000,,2013-03-15 20:12:00,
2013-03-15 14:21:00,63.0,21.0,-100.00,NW,320,23.0,36.0,20,0.00,,,-99.99,980.000000,,2013-03-15 20:21:00,
2013-03-15 14:42:00,61.0,22.0,-100.00,NW,319,26.0,36.0,22,0.00,,,0.00,879.000000,,2013-03-15 20:42:00,
2013-03-15 14:52:00,61.0,22.0,-100.00,NW,319,26.0,36.0,22,0.00,,,0.00,879.000000,,2013-03-15 20:52:00,
2013-03-15 15:02:00,61.0,22.0,-100.00,NW,319,26.0,36.0,22,0.00,,,0.00,879.000000,,2013-03-15 21:02:00,
2013-03-15 15:12:00,61.0,22.0,-100.00,NW,319,26.0,36.0,22,0.00,,,0.00,879.000000,,2013-03-15 21:12:00,
2013-03-15 15:21:00,61.0,22.0,-100.00,NW,319,26.0,36.0,22,0.00,,,0.00,879.000000,,2013-03-15 21:21:00,
2013-03-15 15:22:00,60.0,20.0,-100.00,NNW,330,24.0,37.0,21,0.00,,,0.00,647.000000,,2013-03-15 21:22:00,
2013-03-15 15:43:00,60.0,20.0,-100.00,NNW,330,24.0,37.0,21,0.00,,,0.00,647.000000,,2013-03-15 21:43:00,
2013-03-15 15:52:00,60.0,20.0,-100.00,NNW,330,24.0,37.0,21,0.00,,,0.00,647.000000,,2013-03-15 21:52:00,
2013-03-15 16:03:00,60.0,20.0,-100.00,NNW,330,24.0,37.0,21,0.00,,,0.00,647.000000,,2013-03-15 22:03:00,
2013-03-15 16:12:00,60.0,20.0,-100.00,NNW,330,24.0,37.0,21,0.00,,,0.00,647.000000,,2013-03-15 22:12:00,
2013-03-15 16:42:00,58.0,17.0,-100.00,NNW,331,28.0,39.0,20,0.00,,,0.00,578.000000,,2013-03-15 22:42:00,
2013-03-15 16:52:00,58.0,17.0,-100.00,NNW,331,28.0,39.0,20,0.00,,,0.00,578.000000,,2013-03-15 22:52:00,
2013-03-15 17:02:00,58.0,17.0,-100.00,NNW,331,28.0,39.0,20,0.00,,,0.00,578.000000,,2013-03-15 23:02:00,
2013-03-15 17:12:00,58.0,17.0,-100.00,NNW,331,28.0,39.0,20,0.00,,,0.00,578.000000,,2013-03-15 23:12:00,
2013-03-15 17:21:00,58.0,17.0,-100.00,NNW,331,28.0,39.0,20,0.00,,,0.00,578.000000,,2013-03-15 23:21:00,
2013-03-15 17:22:00,58.0,20.0,-100.00,NW,323,24.0,35.0,23,0.00,,,0.00,452.000000,,2013-03-15 23:22:00,
2013-03-15 17:42:00,58.0,20.0,-100.00,NW,323,24.0,35.0,23,0.00,,,0.00,452.000000,,2013-03-15 23:42:00,
2013-03-15 17:53:00,58.0,20.0,-100.00,NW,323,24.0,35.0,23,0.00,,,0.00,452.000000,,2013-03-15 23:53:00,
2013-03-15 18:02:00,58.0,20.0,-100.00,NW,323,24.0,35.0,23,0.00,,,0.00,452.000000,,2013-03-16 00:02:00,
2013-03-15 18:12:00,58.0,20.0,-100.00,NW,323,24.0,35.0,23,0.00,,,0.00,452.000000,,2013-03-16 00:12:00,
2013-03-15 18:42:00,54.0,20.0,-100.00,NNW,335,17.0,32.0,26,0.00,,,0.00,295.000000,,2013-03-16 00:42:00,
2013-03-15 18:52:00,54.0,20.0,-100.00,NNW,335,17.0,32.0,26,0.00,,,0.00,295.000000,,2013-03-16 00:52:00,
2013-03-15 19:02:00,54.0,20.0,-100.00,NNW,335,17.0,32.0,26,0.00,,,0.00,295.000000,,2013-03-16 01:02:00,
2013-03-15 19:12:00,54.0,20.0,-100.00,NNW,335,17.0,32.0,26,0.00,,,0.00,295.000000,,2013-03-16 01:12:00,
2013-03-15 19:21:00,54.0,20.0,-100.00,NNW,335,17.0,32.0,26,0.00,,,0.00,295.000000,,2013-03-16 01:21:00,
2013-03-15 19:22:00,52.0,21.0,-100.00,NNW,338,12.0,21.0,29,0.00,,,-99.99,54.000000,,2013-03-16 01:22:00,
2013-03-15 19:42:00,52.0,21.0,-100.00,NNW,338,12.0,21.0,29,0.00,,,-99.99,54.000000,,2013-03-16 01:42:00,
2013-03-15 19:52:00,52.0,21.0,-100.00,NNW,338,12.0,21.0,29,0.00,,,-99.99,54.000000,,2013-03-16 01:52:00,
2013-03-15 20:02:00,52.0,21.0,-100.00,NNW,338,12.0,21.0,29,0.00,,,-99.99,54.000000,,2013-03-16 02:02:00,
2013-03-15 20:12:00,52.0,21.0,-100.00,NNW,338,12.0,21.0,29,0.00,,,-99.99,54.000000,,2013-03-16 02:12:00,
2013-03-15 20:43:00,47.0,23.0,-100.00,North,4,6.0,18.0,39,0.00,,,0.00,0.000000,,2013-03-16 02:43:00,
2013-03-15 20:52:00,47.0,23.0,-100.00,North,4,6.0,18.0,39,0.00,,,0.00,0.000000,,2013-03-16 02:52:00,
2013-03-15 21:02:00,47.0,23.0,-100.00,North,4,6.0,18.0,39,0.00,,,0.00,0.000000,,2013-03-16 03:02:00,
2013-03-15 21:12:00,47.0,23.0,-100.00,North,4,6.0,18.0,39,0.00,,,0.00,0.000000,,2013-03-16 03:12:00,
2013-03-15 21:21:00,47.0,23.0,-100.00,North,4,6.0,18.0,39,0.00,,,0.00,0.000000,,2013-03-16 03:21:00,
2013-03-15 21:22:00,43.0,24.0,-100.00,SE,145,2.0,14.0,46,0.00,,,0.00,0.000000,,2013-03-16 03:22:00,
2013-03-15 21:43:00,43.0,24.0,-100.00,SE,145,2.0,14.0,46,0.00,,,0.00,0.000000,,2013-03-16 03:43:00,
2013-03-15 21:53:00,43.0,24.0,-100.00,SE,145,2.0,14.0,46,0.00,,,0.00,0.000000,,2013-03-16 03:53:00,
2013-03-15 22:02:00,43.0,24.0,-100.00,SE,145,2.0,14.0,46,0.00,,,0.00,0.000000,,2013-03-16 04:02:00,
2013-03-15 22:12:00,43.0,24.0,-100.00,SE,145,2.0,14.0,46,0.00,,,0.00,0.000000,,2013-03-16 04:12:00,
2013-03-15 22:43:00,41.0,26.0,-100.00,SE,124,9.0,16.0,55,0.00,,,0.00,0.000000,,2013-03-16 04:43:00,
2013-03-15 22:53:00,41.0,26.0,-100.00,SE,124,9.0,16.0,55,0.00,,,0.00,0.000000,,2013-03-16 04:53:00,
2013-03-15 23:02:00,41.0,26.0,-100.00,SE,124,9.0,16.0,55,0.00,,,0.00,0.000000,,2013-03-16 05:02:00,
2013-03-15 23:12:00,41.0,26.0,-100.00,SE,124,9.0,16.0,55,0.00,,,0.00,0.000000,,2013-03-16 05:12:00,
2013-03-15 23:21:00,41.0,26.0,-100.00,SE,124,9.0,16.0,55,0.00,,,0.00,0.000000,,2013-03-16 05:21:00,
2013-03-15 23:42:00,36.0,26.0,-100.00,SW,221,3.0,14.0,66,0.00,,,0.00,0.000000,,2013-03-16 05:42:00,
2013-03-15 23:53:00,36.0,26.0,-100.00,SW,221,3.0,14.0,66,0.00,,,0.00,0.000000,,2013-03-16 05:53:00,